SCP
0 0 0 0 0 0 0 0 0 -0 -0 0 0 0 0 0 0 0 0 0 -0 -0 -0 -0 -0 -0 -0 -0 0 0 0 0 0 0 0 0 0 0
0 0 0 0 0 0 0 0 0 0 0 -0 0 0 0 0 0 0 0 0 0 0 0 0 0 0 0 0 0 0 0 0 0 0 0 0 -0 0
0 0 0 0 0 0 0 0 0 0 0 0 0 0 0 0 0 0 0 0 0 0 0 0 0 0 0 0 0 0 0 0 0 0 0 0 0 0
0 0 0 0 0 0 0 0 0 0 0 0 0 0 0 0 0 0 0 0 0 0 0 0 0 0 0 0 0 0 0 0 0 0 0 0 0 0
0 0 0 0 0 0 0 0 0 0 0 0 0 0 0 0 0 0 0 0 0 0 0 0 0 0 0 0 0 0 0 0 0 0 0 0 0 0
0 0 0 0 0 0 0 0 0 0 0 0 0 0 0 0 0 0 0 0 0 0 0 0 0 0 0 0 0 0 0 0 0 0 0 0 0 0
0 0 0 0 0 0 0 0 0 0 0 0 0 0 0 0 0 0 0 0 0 0 0 0 0 0 0 0 0 0 0 0 0 0 0 0 0 0
0 0 0 0 0 0 0 0 0 0 0 0 0 0 0 0 0 0 0 0 0 0 0 0 0 0 0 0 0 0 0 0 0 0 0 0 0 0
0 0 0 0 0 0 0 0 0 0 0 0 0 0 0 0 0 0 0 0 0 0 0 0 0 0 0 0 0 0 0 0 0 0 0 0 0 0
0 0 0 -0 0 0 0 0 0 0 0 0 0 0 0 0 0 0 0 0 0 0 0 0 0 0 0 0 0 0 0 0 0 0 0 0 0 0
0 0 0 0 0 0 0 0 0 0 0 0 0 0 0 0 0 0 0 0 0 0 0 0 0 0 0 0 0 0 0 0 0 0 0 0 0 0
0 0 0 0 0 0 0 0 0 0 0 0 0 0 0 0 0 0 0 0 0 0 0 0 0 0 0 0 0 0 0 0 0 0 0 0 0 0
0 0 0 0 0 0 0 0 0 0 0 0 0 0 0 0 0 0 0 0 0 0 0 0 0 0 0 0 0 0 0 0 0 0 0 0 0 0
0 0 0 0 0 0 0 0 0 0 0 0 0 0 0 0 0 0 0 0 0 0 0 0 0 0 0 0 0 0 0 0 0 0 0 0 0 0
0 0 0 0 0 0 0 0 0 0 0 0 0 0 0 0 0 0 0 0 0 0 0 0 0 0 0 0 0 0 0 0 0 0 0 0 0 0
0 0 0 0 0 0 0 0 0 0 0 0 0 0 0 0 0 0 0 0 0 0 0 0 0 0 0 0 0 0 0 0 0 0 0 0 0 0
0 0 0 0 0 0 0 0 0 0 0 0 0 0 0 0 0 0 0 0 0 0 0 0 0 0 0 0 0 0 0 0 0 0 0 0 0 0
0 0 0 0 0 0 0 0 0 0 0 0 0 0 0 0 0 0 0 0 0 0 0 0 0 0 0 0 0 0 0 0 0 0 0 0 0 0
0 0 0 0 0 0 0 0 0 0 0 0 0 0 0 0 0 0 0 0 0 0 0 0 0 0 0 0 0 0 0 0 0 0 0 0 0 0
0 0 0 0 0 0 0 0 1 0 0 0 0 0 0 0 0 0 0 0 0 0 0 0 0 0 0 0 0 0 0 0 0 0 0 0 0 0
0 0 0 0 0 0 0 0 0 0 0 0 0 0 0 0 0 0 0 0 0 0 0 0 0 0 0 0 0 0 0 0 0 0 0 0 0 0
0 0 0 0 0 0 0 0 0 0 0 0 0 0 0 0 0 0 0 0 0 0 0 0 0 0 0 0 0 0 0 0 0 0 0 0 0 0
0 0 0 0 0 0 0 0 0 0 0 0 0 0 0 1 0 0 0 0 0 0 0 0 0 0 0 0 0 0 0 0 0 0 0 0 0 0
Wind_Speed_500mb
41 49 48 46 46 46 51 48 41 45 44 35 37 33 38 37 37 36 37 34 37 37 33 32 33 32 31 31 33 33 33 33 34 33 33 33 33 34
44 39 49 49 49 50 51 56 53 48 51 47 34 32 32 33 27 36 37 41 43 44 42 41 39 40 40 40 40 39 38 40 42 41 39 38 39 39
40 48 45 49 52 51 54 55 59 56 57 56 48 39 35 35 36 33 33 38 45 47 47 41 36 31 34 43 45 43 42 42 41 41 39 38 38 42
38 41 50 49 50 56 55 57 59 56 57 61 52 45 42 40 41 41 39 39 38 39 40 36 36 30 24 27 33 37 37 35 34 33 32 31 30 26
44 43 48 52 54 55 61 59 59 57 53 61 61 52 47 45 38 48 48 46 44 39 44 40 40 36 35 31 32 32 31 31 29 25 22 17 17 23
45 47 46 48 57 55 62 64 60 64 62 60 60 54 52 48 41 32 42 48 41 39 39 36 32 30 31 35 42 40 37 33 30 27 24 22 20 26
44 42 53 53 48 50 57 62 61 60 60 59 63 59 59 58 52 41 36 37 42 41 40 38 34 32 31 28 31 41 41 39 38 34 30 27 25 27
35 40 42 45 43 44 47 54 60 62 65 64 64 68 64 61 56 46 44 42 45 40 40 34 34 33 30 29 32 34 31 28 35 36 33 32 30 24
41 34 33 32 36 40 45 47 58 65 68 65 67 65 64 62 54 55 51 48 47 43 36 35 29 30 31 34 32 30 32 31 29 33 36 37 33 29
38 41 41 43 42 42 37 40 53 62 66 66 67 65 58 53 53 49 49 40 35 36 38 40 35 36 36 37 32 33 37 34 34 35 35 36 36 33
46 45 45 38 37 44 47 39 31 53 61 73 62 60 55 52 54 47 52 45 44 41 37 35 33 31 27 27 27 24 23 27 30 30 32 37 37 35
59 53 51 46 39 45 42 39 44 42 49 58 55 58 58 63 56 58 55 53 50 47 43 38 36 32 36 36 35 35 34 31 30 34 39 41 39 36
73 66 62 51 51 47 52 45 32 27 44 54 50 50 62 62 61 59 58 57 54 54 48 41 36 30 32 35 32 30 33 32 33 34 38 39 39 37
67 77 69 65 54 55 53 58 51 47 36 45 57 59 60 64 62 62 60 61 60 55 45 44 43 44 45 41 43 43 38 36 34 30 38 41 40 39
67 68 63 64 61 57 57 53 57 47 49 53 60 65 59 59 55 56 54 53 55 52 49 50 48 47 44 45 45 47 46 42 37 37 41 46 43 42
50 50 50 54 60 63 58 59 59 55 62 61 51 59 63 65 65 67 63 62 62 62 58 57 54 54 48 44 45 48 51 46 40 33 37 43 44 42
34 31 34 34 41 51 53 54 55 53 54 58 53 59 62 66 65 64 57 54 62 71 66 58 56 53 52 50 53 50 50 47 39 32 35 37 41 44
49 52 47 46 44 42 43 49 52 48 52 54 61 62 64 65 72 72 69 66 67 66 61 54 51 48 52 57 58 57 57 52 46 41 39 40 39 38
59 54 51 49 48 46 39 36 44 40 37 41 51 54 62 71 62 59 55 59 74 73 62 51 45 52 61 69 64 63 67 60 54 53 46 43 37 35
54 48 45 55 52 51 46 39 42 47 46 37 38 46 53 66 64 57 60 55 63 68 61 56 58 61 63 69 66 62 56 54 59 58 50 46 39 37
57 56 55 49 49 50 52 52 50 47 41 44 46 40 43 54 66 60 63 58 59 57 57 59 58 50 54 55 56 60 53 47 51 57 52 51 46 46
60 56 49 51 49 51 53 55 55 55 57 54 53 44 42 42 50 54 57 59 50 50 53 51 52 52 53 56 61 58 54 52 51 51 55 54 53 57
57 56 55 55 49 45 51 53 51 51 56 66 68 64 58 59 56 56 54 47 41 42 47 47 44 50 55 57 56 56 55 57 55 59 62 59 53 44
Wind_Direction_500mb
262 263 262 258 258 252 249 255 261 269 269 262 268 266 260 257 262 249 250 235 235 245 249 249 249 254 256 254 252 253 256 261 266 271 274 275 276 279
263 254 260 262 259 252 252 250 254 258 262 261 267 266 260 256 253 247 246 233 229 238 247 253 253 252 255 257 255 253 256 261 263 266 269 273 274 278
267 256 260 266 258 255 251 251 248 251 255 260 258 264 260 253 252 252 256 246 241 237 244 242 244 246 251 249 250 251 257 262 264 265 264 271 278 282
273 268 262 266 264 255 250 246 246 245 251 255 256 256 263 261 259 255 253 241 231 236 236 244 241 247 258 262 247 248 254 259 260 262 266 272 281 291
268 271 272 266 262 260 250 246 243 243 250 252 255 255 257 257 259 253 246 233 235 253 244 247 244 252 254 255 246 249 251 252 253 254 261 257 281 300
266 270 274 265 261 263 253 246 245 245 249 249 246 252 252 250 253 253 245 236 240 239 233 239 251 248 261 258 247 249 249 250 249 246 255 255 283 300
262 273 274 269 263 258 247 243 240 241 243 242 241 246 246 246 241 259 261 233 230 230 234 242 249 260 254 250 259 252 259 251 254 247 252 255 275 295
267 279 281 274 264 262 249 243 240 239 237 239 241 239 245 247 248 250 245 234 239 234 238 252 259 254 260 255 276 260 264 254 253 251 255 255 266 285
269 281 280 264 274 267 259 250 247 244 241 238 240 239 244 246 243 243 244 235 243 246 240 251 254 252 255 276 271 255 250 251 253 253 257 253 257 273
269 269 273 260 266 261 258 266 249 242 238 234 237 239 242 245 251 244 235 234 241 239 246 253 258 262 269 273 264 256 251 250 258 258 250 246 250 264
267 266 268 265 270 256 265 292 259 245 244 234 240 241 245 239 236 233 231 231 235 242 248 256 265 268 268 246 249 252 245 242 249 250 247 241 247 258
261 259 260 264 266 248 252 297 272 263 239 220 231 232 240 233 225 228 231 239 243 246 251 260 266 265 273 259 257 251 249 248 248 252 252 240 245 254
260 257 256 258 260 262 259 275 284 284 226 228 231 231 235 232 225 228 231 234 241 247 254 268 266 259 264 271 265 260 248 247 257 261 252 245 245 254
263 259 257 258 264 261 269 267 274 273 274 245 244 234 231 230 224 231 233 238 246 252 254 253 253 258 262 268 267 258 251 258 262 256 248 241 241 249
260 264 263 263 264 261 258 258 260 261 269 265 238 238 239 238 233 233 232 235 238 240 243 247 255 254 254 258 263 256 256 257 266 263 249 241 249 255
257 258 264 264 265 263 262 250 252 263 253 253 253 248 248 245 235 235 238 235 238 242 245 251 257 253 253 252 255 252 255 261 267 252 244 247 250 248
236 259 268 277 278 268 262 256 253 258 255 244 251 255 254 251 242 235 238 240 242 244 246 247 250 252 249 253 251 254 255 257 252 247 240 249 253 252
262 273 265 266 281 289 271 259 251 253 262 254 243 254 256 256 253 245 243 241 238 239 244 247 246 243 241 244 244 248 247 249 241 243 244 251 256 242
262 264 268 268 271 277 280 265 254 256 262 259 249 250 257 256 246 239 242 246 246 247 248 247 245 240 241 243 252 246 247 243 237 238 245 252 256 241
255 263 262 263 265 268 266 259 259 259 258 257 257 249 244 253 244 242 242 244 247 249 247 241 245 244 242 246 253 256 259 241 237 238 240 246 244 231
262 267 264 261 260 261 262 258 253 256 257 257 259 259 256 245 243 235 242 237 241 250 250 250 252 256 257 258 250 250 249 247 242 239 237 240 237 234
263 267 267 263 270 263 255 253 255 252 248 249 256 261 265 260 257 253 252 251 248 251 253 262 264 265 255 251 252 253 250 250 249 233 231 237 238 233
265 264 266 259 263 269 256 253 255 257 255 249 245 250 257 261 260 257 258 261 261 256 258 260 266 260 257 250 256 258 250 247 242 230 224 228 234 238
Wind_Speed_850mb
41 49 48 46 46 46 51 48 41 45 44 35 37 33 38 37 37 36 37 34 37 37 33 32 33 32 31 31 33 33 33 33 34 33 33 33 33 34
44 39 49 49 49 50 51 56 53 48 51 47 34 32 32 33 27 36 37 41 43 44 42 41 39 40 40 40 40 39 38 40 42 41 39 38 39 39
40 48 45 49 52 51 54 55 59 56 57 56 48 39 35 35 36 33 33 38 45 47 47 41 36 31 34 43 45 43 42 42 41 41 39 38 38 42
38 41 50 49 50 56 55 57 59 56 57 61 52 45 42 40 41 41 39 39 38 39 40 36 36 30 24 27 33 37 37 35 34 33 32 31 30 26
44 43 48 52 54 55 61 59 59 57 53 61 61 52 47 45 38 48 48 46 44 39 44 40 40 36 35 31 32 32 31 31 29 25 22 17 17 23
45 47 46 48 57 55 62 64 60 64 62 60 60 54 52 48 41 32 42 48 41 39 39 36 32 30 31 35 42 40 37 33 30 27 24 22 20 26
44 42 53 53 48 50 57 62 61 60 60 59 63 59 59 58 52 41 36 37 42 41 40 38 34 32 31 28 31 41 41 39 38 34 30 27 25 27
35 40 42 45 43 44 47 54 60 62 65 64 64 68 64 61 56 46 44 42 45 40 40 34 34 33 30 29 32 34 31 28 35 36 33 32 30 24
41 34 33 32 36 40 45 47 58 65 68 65 67 65 64 62 54 55 51 48 47 43 36 35 29 30 31 34 32 30 32 31 29 33 36 37 33 29
38 41 41 43 42 42 37 40 53 62 66 66 67 65 58 53 53 49 49 40 35 36 38 40 35 36 36 37 32 33 37 34 34 35 35 36 36 33
46 45 45 38 37 44 47 39 31 53 61 73 62 60 55 52 54 47 52 45 44 41 37 35 33 31 27 27 27 24 23 27 30 30 32 37 37 35
59 53 51 46 39 45 42 39 44 42 49 58 55 58 58 63 56 58 55 53 50 47 43 38 36 32 36 36 35 35 34 31 30 34 39 41 39 36
73 66 62 51 51 47 52 45 32 27 44 54 50 50 62 62 61 59 58 57 54 54 48 41 36 30 32 35 32 30 33 32 33 34 38 39 39 37
67 77 69 65 54 55 53 58 51 47 36 45 57 59 60 64 62 62 60 61 60 55 45 44 43 44 45 41 43 43 38 36 34 30 38 41 40 39
67 68 63 64 61 57 57 53 57 47 49 53 60 65 59 59 55 56 54 53 55 52 49 50 48 47 44 45 45 47 46 42 37 37 41 46 43 42
50 50 50 54 60 63 58 59 59 55 62 61 51 59 63 65 65 67 63 62 62 62 58 57 54 54 48 44 45 48 51 46 40 33 37 43 44 42
34 31 34 34 41 51 53 54 55 53 54 58 53 59 62 66 65 64 57 54 62 71 66 58 56 53 52 50 53 50 50 47 39 32 35 37 41 44
49 52 47 46 44 42 43 49 52 48 52 54 61 62 64 65 72 72 69 66 67 66 61 54 51 48 52 57 58 57 57 52 46 41 39 40 39 38
59 54 51 49 48 46 39 36 44 40 37 41 51 54 62 71 62 59 55 59 74 73 62 51 45 52 61 69 64 63 67 60 54 53 46 43 37 35
54 48 45 55 52 51 46 39 42 47 46 37 38 46 53 66 64 57 60 55 63 68 61 56 58 61 63 69 66 62 56 54 59 58 50 46 39 37
57 56 55 49 49 50 52 52 50 47 41 44 46 40 43 54 66 60 63 58 59 57 57 59 58 50 54 55 56 60 53 47 51 57 52 51 46 46
60 56 49 51 49 51 53 55 55 55 57 54 53 44 42 42 50 54 57 59 50 50 53 51 52 52 53 56 61 58 54 52 51 51 55 54 53 57
57 56 55 55 49 45 51 53 51 51 56 66 68 64 58 59 56 56 54 47 41 42 47 47 44 50 55 57 56 56 55 57 55 59 62 59 53 44
Wind_Direction_850mb
262 263 262 258 258 252 249 255 261 269 269 262 268 266 260 257 262 249 250 235 235 245 249 249 249 254 256 254 252 253 256 261 266 271 274 275 276 279
263 254 260 262 259 252 252 250 254 258 262 261 267 266 260 256 253 247 246 233 229 238 247 253 253 252 255 257 255 253 256 261 263 266 269 273 274 278
267 256 260 266 258 255 251 251 248 251 255 260 258 264 260 253 252 252 256 246 241 237 244 242 244 246 251 249 250 251 257 262 264 265 264 271 278 282
273 268 262 266 264 255 250 246 246 245 251 255 256 256 263 261 259 255 253 241 231 236 236 244 241 247 258 262 247 248 254 259 260 262 266 272 281 291
268 271 272 266 262 260 250 246 243 243 250 252 255 255 257 257 259 253 246 233 235 253 244 247 244 252 254 255 246 249 251 252 253 254 261 257 281 300
266 270 274 265 261 263 253 246 245 245 249 249 246 252 252 250 253 253 245 236 240 239 233 239 251 248 261 258 247 249 249 250 249 246 255 255 283 300
262 273 274 269 263 258 247 243 240 241 243 242 241 246 246 246 241 259 261 233 230 230 234 242 249 260 254 250 259 252 259 251 254 247 252 255 275 295
267 279 281 274 264 262 249 243 240 239 237 239 241 239 245 247 248 250 245 234 239 234 238 252 259 254 260 255 276 260 264 254 253 251 255 255 266 285
269 281 280 264 274 267 259 250 247 244 241 238 240 239 244 246 243 243 244 235 243 246 240 251 254 252 255 276 271 255 250 251 253 253 257 253 257 273
269 269 273 260 266 261 258 266 249 242 238 234 237 239 242 245 251 244 235 234 241 239 246 253 258 262 269 273 264 256 251 250 258 258 250 246 250 264
267 266 268 265 270 256 265 292 259 245 244 234 240 241 245 239 236 233 231 231 235 242 248 256 265 268 268 246 249 252 245 242 249 250 247 241 247 258
261 259 260 264 266 248 252 297 272 263 239 220 231 232 240 233 225 228 231 239 243 246 251 260 266 265 273 259 257 251 249 248 248 252 252 240 245 254
260 257 256 258 260 262 259 275 284 284 226 228 231 231 235 232 225 228 231 234 241 247 254 268 266 259 264 271 265 260 248 247 257 261 252 245 245 254
263 259 257 258 264 261 269 267 274 273 274 245 244 234 231 230 224 231 233 238 246 252 254 253 253 258 262 268 267 258 251 258 262 256 248 241 241 249
260 264 263 263 264 261 258 258 260 261 269 265 238 238 239 238 233 233 232 235 238 240 243 247 255 254 254 258 263 256 256 257 266 263 249 241 249 255
257 258 264 264 265 263 262 250 252 263 253 253 253 248 248 245 235 235 238 235 238 242 245 251 257 253 253 252 255 252 255 261 267 252 244 247 250 248
236 259 268 277 278 268 262 256 253 258 255 244 251 255 254 251 242 235 238 240 242 244 246 247 250 252 249 253 251 254 255 257 252 247 240 249 253 252
262 273 265 266 281 289 271 259 251 253 262 254 243 254 256 256 253 245 243 241 238 239 244 247 246 243 241 244 244 248 247 249 241 243 244 251 256 242
262 264 268 268 271 277 280 265 254 256 262 259 249 250 257 256 246 239 242 246 246 247 248 247 245 240 241 243 252 246 247 243 237 238 245 252 256 241
255 263 262 263 265 268 266 259 259 259 258 257 257 249 244 253 244 242 242 244 247 249 247 241 245 244 242 246 253 256 259 241 237 238 240 246 244 231
262 267 264 261 260 261 262 258 253 256 257 257 259 259 256 245 243 235 242 237 241 250 250 250 252 256 257 258 250 250 249 247 242 239 237 240 237 234
263 267 267 263 270 263 255 253 255 252 248 249 256 261 265 260 257 253 252 251 248 251 253 262 264 265 255 251 252 253 250 250 249 233 231 237 238 233
265 264 266 259 263 269 256 253 255 257 255 249 245 250 257 261 260 257 258 261 261 256 258 260 266 260 257 250 256 258 250 247 242 230 224 228 234 238